Wind_Speed
13 13 13 13 13 14 14 14 13 13 13 13 12 11 11 11 10 10 10 9 9 9 9 8 7 7 7 7 7 7 7 6 6 6 6 5 6 6 6 7 7 7 7
12 12 12 12 12 13 13 13 13 12 12 12 11 11 11 10 10 10 9 9 8 8 8 7 7 6 6 6 6 7 7 6 6 5 5 5 6 6 7 7 7 7 6
11 11 11 12 12 12 12 12 12 11 11 11 11 10 10 10 9 9 9 9 8 7 7 7 6 6 6 6 6 6 6 6 6 6 5 6 6 6 6 6 6 6 5
10 10 11 11 11 11 11 11 11 10 10 10 10 10 10 10 9 9 8 8 7 7 7 6 6 6 6 6 6 6 6 6 6 6 6 6 6 6 6 6 6 5 5
9 9 10 10 10 10 10 10 10 10 10 10 10 9 9 9 9 9 8 7 7 7 6 6 6 6 6 6 6 5 5 5 5 5 5 5 5 5 5 5 6 6 6
8 9 9 9 9 9 9 9 9 9 9 9 9 9 9 9 9 8 8 8 7 6 6 6 6 6 6 6 5 5 4 4 4 5 5 5 5 5 6 5 6 6 6
8 8 9 9 9 9 8 8 9 9 9 9 9 9 9 8 8 8 8 8 7 6 6 6 6 6 5 5 5 4 4 3 4 4 5 5 6 6 5 5 6 6 6
8 8 8 9 9 8 8 8 8 8 8 8 8 8 8 8 8 8 8 8 8 7 6 6 5 5 4 4 4 4 4 3 4 4 5 5 5 5 5 5 5 5 6
8 7 8 8 8 8 8 8 7 7 7 7 7 7 8 8 7 8 8 7 7 7 6 6 5 5 4 4 4 4 4 4 3 4 4 4 4 4 4 4 4 5 5
7 7 7 7 7 8 7 7 6 6 5 5 6 6 7 7 7 7 7 7 7 6 6 6 5 5 5 4 4 4 3 4 3 3 3 3 3 3 3 3 3 3 4
6 6 6 6 7 7 6 6 5 5 5 5 5 5 6 6 5 6 6 6 6 6 6 5 5 5 4 4 4 4 3 3 3 3 2 2 2 1 1 2 2 2 3
6 6 6 5 6 6 5 5 5 4 4 4 4 4 5 5 4 4 5 5 5 5 5 5 5 5 5 4 3 3 3 3 3 2 1 1 1 1 1 0 0 1 2
5 5 5 4 4 4 4 4 4 4 4 4 3 4 4 4 4 4 4 4 4 4 4 5 5 5 5 4 3 2 3 3 3 2 1 1 1 1 0 0 0 1 2
4 4 4 4 4 3 3 4 4 4 4 3 2 3 3 4 4 5 5 4 4 4 4 4 4 5 4 4 2 2 2 2 3 2 2 1 1 1 1 1 2 2 2
4 4 4 4 4 4 4 4 4 4 4 3 2 2 3 3 4 4 4 4 4 4 4 5 4 4 5 5 4 3 2 2 3 2 2 2 2 2 2 2 2 3 3
4 4 4 4 4 4 4 4 4 4 4 3 3 3 3 3 4 5 5 5 5 5 5 5 5 5 5 5 4 4 3 3 3 3 3 3 2 2 3 3 3 3 3
4 3 3 4 4 4 4 4 4 4 3 3 3 3 3 3 4 5 5 5 5 5 5 5 5 5 5 5 5 4 4 3 4 4 4 3 3 3 3 4 3 3 4
4 4 3 3 3 3 3 3 3 4 4 4 4 4 4 4 4 5 5 6 6 6 6 6 6 6 5 5 5 5 4 4 4 4 4 4 4 4 4 4 4 4 4
3 3 3 3 3 3 3 3 3 4 4 4 4 4 4 5 5 6 6 6 6 6 6 6 6 6 6 5 5 4 4 5 5 4 5 5 5 5 4 4 5 5 5
3 2 2 3 3 4 4 3 3 4 4 4 5 5 5 5 5 5 6 6 7 6 6 6 6 6 6 5 4 4 4 5 5 5 5 5 5 5 5 5 5 6 6
4 4 4 4 5 5 4 3 4 4 4 5 5 5 5 5 5 6 6 7 7 6 6 7 7 7 6 5 5 4 4 4 5 5 5 5 6 6 6 6 6 6 7
5 6 5 5 6 7 5 4 4 4 5 6 5 5 6 6 6 6 7 7 7 6 7 7 7 6 6 5 4 4 4 5 5 6 6 6 7 7 7 7 8 8 8
5 5 6 7 7 7 6 4 4 4 5 6 7 7 7 7 8 8 8 8 8 8 8 7 6 6 6 6 4 5 5 6 6 7 7 7 7 8 8 8 9 10 10
6 6 7 7 6 6 5 5 5 5 6 7 7 8 9 9 9 9 9 9 9 8 8 7 7 7 7 6 6 6 7 7 7 8 8 9 9 9 10 10 10 11 11
6 6 7 6 5 5 5 6 6 6 7 8 8 9 10 10 10 9 10 10 9 9 8 8 8 8 8 8 8 8 9 9 9 10 10 11 11 11 10 10 10 11 11
7 6 7 7 6 6 6 7 7 7 7 8 9 10 10 10 10 10 9 9 9 9 8 8 8 8 8 8 9 9 10 11 11 11 12 12 11 11 11 11 11 12 12
Wind_Direction
90 90 91 89 88 87 85 83 83 82 78 75 73 75 76 76 79 78 78 77 77 78 80 80 79 73 74 81 80 83 83 84 82 80 82 85 81 79 79 77 75 76 84
91 91 88 89 88 85 83 81 80 79 77 74 71 70 73 73 74 72 73 75 74 73 73 73 69 68 72 72 75 81 79 81 80 79 84 85 83 80 76 79 77 77 81
91 92 89 89 87 85 82 79 76 76 75 73 71 69 70 69 68 69 68 69 70 69 68 67 63 64 67 68 74 77 74 73 79 79 82 84 87 83 80 78 75 77 79
93 92 88 88 87 84 82 79 76 76 73 70 69 67 66 65 62 65 65 65 66 65 63 62 63 65 67 70 73 74 72 71 73 73 81 83 85 81 80 77 73 73 77
95 91 87 87 87 84 82 80 77 74 70 67 64 62 62 62 61 60 60 62 65 64 61 61 67 70 72 75 75 72 74 72 67 70 74 76 78 79 80 75 72 67 72
95 90 87 85 87 86 83 79 76 73 70 66 63 62 61 61 62 60 59 65 69 68 66 71 71 73 79 76 70 69 71 69 62 62 64 68 73 81 82 74 71 65 71
92 90 87 84 84 83 82 79 77 74 69 64 61 60 60 59 56 59 65 60 64 69 67 68 69 71 74 71 69 70 64 58 57 57 66 66 77 84 83 74 69 69 68
90 87 87 86 82 81 80 78 77 74 68 64 60 59 57 57 54 59 65 63 63 64 63 61 61 61 64 61 60 60 51 54 54 64 72 70 78 86 85 76 68 66 60
87 83 88 86 83 80 78 78 77 73 67 62 58 57 56 52 49 52 57 59 55 55 51 48 47 49 51 51 51 55 50 51 53 70 77 74 83 92 87 78 67 59 55
88 86 87 85 81 78 77 78 77 70 65 62 56 55 51 48 44 42 47 44 44 48 45 41 41 42 41 49 51 50 48 44 49 65 71 71 83 93 85 78 66 61 54
90 91 86 86 81 79 78 81 79 70 64 58 55 52 49 42 39 42 40 37 37 40 42 38 34 30 31 42 48 47 41 42 48 62 61 60 73 85 92 89 69 58 43
92 93 93 89 81 77 74 72 69 63 57 54 54 45 40 34 32 33 31 29 30 31 36 31 22 22 20 20 29 41 40 39 37 41 37 30 53 64 110 136 75 29 16
86 89 87 86 80 72 66 64 60 57 51 50 52 38 27 20 20 17 22 19 19 16 20 18 15 17 12 13 21 31 34 25 19 18 12 10 24 22 356 251 296 334 336
83 86 84 76 65 53 55 63 57 54 48 40 45 38 26 21 26 24 18 13 8 3 3 8 7 6 2 5 8 9 7 358 359 344 338 335 323 322 312 280 301 318 324
75 74 74 63 51 45 50 56 53 49 38 29 19 19 13 15 16 10 4 357 351 348 353 358 357 354 354 355 350 343 327 323 329 328 313 305 304 313 307 296 295 306 309
68 68 63 55 46 42 42 44 38 32 24 15 7 2 359 349 352 355 350 342 338 341 345 348 347 345 343 345 345 341 318 304 303 304 295 291 294 303 300 297 298 299 298
50 50 51 49 40 33 28 31 24 10 6 360 355 354 345 333 336 336 339 330 329 334 332 330 330 330 329 328 327 328 322 307 303 298 292 286 282 294 300 292 298 303 300
34 34 36 37 28 19 18 22 10 0 346 337 343 343 332 326 324 323 323 327 327 326 326 328 328 323 319 319 319 322 325 312 303 306 299 291 284 286 297 294 290 295 300
21 24 21 17 19 2 357 3 357 351 346 343 336 332 331 330 324 320 316 311 312 314 318 319 317 314 318 318 317 315 308 304 299 293 295 298 291 282 288 291 290 291 294
3 350 345 339 338 332 333 334 334 339 338 337 335 330 334 341 329 322 317 313 312 306 309 313 314 307 312 309 309 307 297 294 292 288 290 292 291 285 286 285 287 286 287
347 340 329 324 320 315 322 325 320 327 328 324 324 326 329 330 321 311 313 313 313 304 305 310 309 305 305 294 293 299 294 287 286 279 278 287 289 288 285 281 283 284 286
338 336 331 319 311 309 303 310 308 307 311 309 311 307 307 313 314 310 310 313 312 305 303 308 308 304 300 293 291 289 283 284 288 279 278 284 286 284 282 278 278 281 283
322 320 328 326 314 312 306 305 314 308 304 303 301 296 293 300 304 304 304 309 309 306 301 300 303 303 297 288 283 284 285 291 292 286 284 287 289 285 284 281 278 277 279
311 317 319 318 327 324 318 315 314 310 307 304 300 295 289 294 297 298 299 301 304 303 296 290 299 300 297 290 283 282 285 289 290 287 288 286 286 287 286 282 280 280 279
307 314 315 310 319 323 317 312 311 307 306 307 304 304 301 298 294 294 295 293 295 299 292 289 294 292 290 287 283 280 282 285 286 285 284 284 284 284 283 280 279 280 279
296 305 309 307 308 306 304 306 307 308 310 314 311 310 308 302 299 295 293 290 294 297 294 290 292 289 288 288 286 284 283 284 285 283 280 281 281 281 282 281 281 281 278
Height
5884 5883 5883 5883 5884 5884 5884 5885 5885 5885 5886 5886 5887 5887 5887 5887 5887 5887 5887 5888 5888 5888 5888 5887 5888 5887 5887 5887 5887 5887 5887 5887 5887 5887 5887 5887 5887 5887 5887 5887 5887 5887 5887
5886 5886 5886 5886 5886 5886 5886 5887 5887 5887 5888 5888 5888 5888 5889 5889 5888 5889 5889 5889 5889 5889 5889 5889 5889 5888 5888 5888 5888 5888 5888 5888 5888 5888 5888 5888 5887 5888 5888 5888 5888 5888 5888
5888 5888 5888 5888 5888 5888 5888 5889 5889 5889 5889 5890 5890 5890 5890 5890 5890 5890 5890 5890 5890 5890 5890 5890 5889 5889 5889 5889 5889 5889 5889 5889 5889 5889 5889 5888 5888 5889 5889 5889 5889 5889 5889
5889 5889 5889 5889 5890 5890 5890 5891 5891 5891 5891 5891 5891 5891 5891 5891 5891 5891 5891 5891 5891 5891 5891 5890 5890 5890 5890 5890 5890 5890 5890 5890 5890 5890 5889 5889 5890 5890 5890 5889 5889 5889 5889
5891 5891 5891 5891 5891 5892 5892 5892 5892 5892 5893 5893 5893 5893 5893 5893 5892 5892 5892 5892 5892 5892 5892 5891 5891 5891 5891 5891 5891 5891 5891 5891 5891 5890 5890 5890 5890 5890 5890 5890 5890 5890 5890
5893 5892 5892 5893 5893 5893 5893 5894 5894 5894 5894 5894 5894 5894 5894 5894 5893 5893 5893 5893 5893 5892 5892 5892 5892 5892 5892 5892 5891 5891 5891 5891 5891 5891 5891 5891 5891 5891 5891 5891 5891 5891 5890
5894 5894 5894 5894 5894 5894 5895 5895 5895 5895 5895 5895 5895 5895 5895 5895 5895 5894 5894 5894 5893 5893 5893 5893 5893 5893 5892 5892 5892 5892 5892 5892 5892 5892 5891 5891 5891 5891 5892 5892 5892 5892 5891
5896 5895 5895 5895 5895 5895 5896 5896 5896 5896 5896 5896 5897 5897 5896 5896 5895 5895 5895 5895 5894 5894 5894 5894 5894 5893 5893 5893 5893 5893 5893 5893 5892 5892 5892 5892 5892 5892 5892 5892 5892 5892 5892
5897 5897 5897 5897 5897 5897 5897 5897 5897 5897 5897 5897 5897 5897 5897 5897 5896 5896 5896 5896 5896 5895 5895 5894 5894 5894 5894 5893 5893 5893 5893 5893 5893 5893 5893 5893 5893 5893 5893 5893 5893 5893 5893
5898 5898 5898 5898 5898 5898 5898 5898 5898 5898 5898 5898 5898 5898 5898 5898 5897 5897 5897 5897 5897 5896 5896 5895 5895 5895 5894 5894 5894 5893 5893 5893 5893 5893 5893 5893 5893 5894 5894 5894 5894 5894 5894
5899 5899 5900 5900 5899 5899 5899 5899 5899 5899 5899 5899 5899 5899 5899 5899 5898 5898 5898 5898 5897 5897 5896 5896 5895 5895 5895 5894 5894 5894 5894 5894 5894 5894 5894 5894 5894 5894 5894 5894 5895 5895 5895
5900 5900 5900 5900 5900 5900 5900 5900 5900 5900 5900 5900 5900 5900 5899 5899 5899 5899 5898 5898 5898 5898 5897 5896 5896 5895 5895 5895 5894 5894 5894 5894 5894 5894 5894 5894 5894 5894 5894 5895 5895 5895 5895
5901 5901 5901 5901 5901 5901 5901 5901 5901 5901 5901 5900 5900 5900 5900 5900 5899 5899 5899 5898 5898 5898 5897 5897 5896 5896 5895 5895 5894 5894 5894 5894 5894 5894 5894 5894 5894 5894 5894 5894 5895 5895 5895
5902 5902 5902 5902 5902 5902 5902 5901 5901 5901 5901 5901 5901 5900 5900 5900 5900 5899 5899 5899 5898 5898 5897 5897 5896 5896 5895 5895 5895 5895 5894 5894 5895 5895 5894 5894 5894 5894 5894 5894 5894 5894 5895
5903 5903 5903 5903 5902 5902 5902 5902 5902 5902 5902 5902 5901 5901 5900 5900 5900 5900 5899 5899 5898 5898 5897 5897 5896 5896 5895 5895 5895 5894 5894 5894 5894 5894 5894 5894 5894 5894 5894 5894 5894 5894 5894
5903 5903 5903 5903 5903 5903 5903 5903 5903 5902 5902 5902 5901 5901 5901 5900 5900 5900 5899 5899 5898 5897 5897 5897 5896 5896 5895 5895 5894 5894 5894 5894 5894 5894 5894 5894 5894 5894 5894 5894 5893 5893 5893
5904 5904 5904 5904 5904 5904 5903 5903 5903 5903 5902 5902 5901 5901 5901 5900 5900 5899 5899 5898 5898 5897 5897 5896 5896 5895 5895 5894 5894 5894 5893 5893 5893 5893 5893 5893 5893 5893 5893 5893 5893 5893 5893
5905 5905 5905 5905 5905 5904 5904 5903 5903 5903 5902 5902 5901 5901 5900 5900 5899 5899 5898 5898 5897 5897 5896 5896 5895 5895 5894 5894 5893 5893 5893 5893 5893 5893 5893 5892 5892 5892 5892 5892 5892 5892 5892
5906 5906 5906 5906 5905 5905 5904 5904 5903 5902 5902 5902 5901 5900 5899 5899 5899 5898 5898 5897 5897 5896 5895 5895 5895 5894 5893 5893 5892 5892 5892 5892 5892 5892 5892 5892 5891 5892 5892 5892 5892 5891 5891
5906 5906 5906 5906 5905 5905 5904 5904 5903 5902 5902 5901 5900 5900 5899 5899 5898 5897 5897 5896 5895 5895 5895 5894 5893 5893 5892 5891 5891 5891 5891 5891 5891 5891 5891 5891 5891 5891 5891 5891 5891 5890 5890
5906 5906 5905 5905 5905 5904 5903 5903 5902 5901 5901 5901 5900 5899 5899 5898 5898 5897 5896 5895 5894 5894 5894 5893 5892 5891 5890 5890 5890 5890 5890 5890 5890 5890 5890 5890 5889 5889 5889 5889 5889 5889 5889
5906 5905 5904 5903 5903 5903 5902 5902 5901 5901 5900 5900 5899 5899 5898 5897 5897 5896 5895 5894 5894 5893 5892 5892 5891 5890 5889 5889 5889 5889 5889 5890 5889 5889 5888 5888 5888 5888 5888 5888 5888 5888 5887
5905 5905 5904 5902 5902 5902 5901 5901 5901 5900 5899 5899 5898 5897 5897 5896 5895 5895 5894 5894 5893 5892 5891 5891 5890 5890 5889 5888 5888 5888 5888 5888 5888 5888 5887 5887 5886 5886 5886 5886 5886 5885 5885
5904 5903 5903 5902 5901 5901 5900 5900 5899 5899 5898 5897 5897 5896 5895 5895 5894 5894 5893 5892 5892 5891 5890 5889 5889 5888 5888 5887 5887 5887 5887 5887 5886 5886 5886 5885 5884 5884 5884 5884 5883 5883 5883
5903 5902 5901 5901 5900 5899 5900 5899 5898 5898 5897 5896 5895 5894 5893 5893 5892 5892 5891 5891 5890 5889 5889 5888 5887 5887 5887 5886 5886 5885 5885 5884 5884 5884 5883 5883 5883 5882 5882 5881 5881 5881 5880
5902 5901 5900 5899 5899 5898 5898 5898 5897 5896 5895 5894 5894 5893 5892 5891 5891 5890 5889 5889 5888 5888 5887 5887 5886 5885 5885 5885 5884 5884 5883 5882 5882 5881 5880 5880 5880 5880 5879 5879 5878 5878 5878